Wind_Speed
32 32 33 33 33 34 33 33 33 33 34 34 34 35 35 34 33 34 34 35 35 35 34 34 34 34 34 33 33 32 32 32 31 31 31 32 32 32 33 34 34 35
33 33 33 33 33 33 33 33 33 33 34 34 34 34 34 33 33 34 34 34 35 35 35 35 34 34 34 34 34 34 34 33 33 32 33 34 34 34 35 34 35 35
32 32 32 32 32 33 33 33 33 33 33 33 33 33 33 33 33 34 34 34 35 35 35 35 35 35 35 35 35 36 36 35 35 35 35 36 35 35 36 35 36 36
31 31 32 32 33 33 33 32 32 32 32 32 32 33 33 33 33 34 34 35 35 35 35 36 36 36 36 35 36 36 37 37 36 36 36 37 37 37 37 36 37 37
30 31 31 31 31 31 31 31 31 31 31 31 31 32 32 33 34 34 35 35 36 36 36 37 37 37 37 37 37 37 37 37 37 37 37 38 38 38 38 37 37 37
25 27 28 29 29 29 29 29 29 29 29 30 30 31 32 33 33 34 35 35 36 36 37 37 37 38 38 38 38 38 38 38 38 38 38 39 39 39 38 38 37 38
16 19 22 24 25 26 27 27 27 27 28 28 29 29 30 31 32 33 34 35 35 36 37 38 38 38 38 39 39 39 39 39 39 38 38 38 38 38 38 37 38 38
2 5 9 12 15 18 20 22 24 24 25 25 26 27 28 29 30 31 32 33 34 35 36 37 38 39 39 39 39 39 39 39 39 38 38 38 38 38 38 38 38 39
12 10 7 4 3 3 6 9 12 15 17 18 20 22 24 26 27 28 30 31 32 34 35 36 37 38 39 39 40 40 39 39 39 39 39 39 39 39 39 39 39 39
17 16 14 13 12 11 9 8 6 5 6 8 10 13 15 18 21 23 25 28 30 32 33 34 35 37 38 39 40 40 40 40 40 40 40 40 41 41 40 39 39 39
20 19 18 17 16 14 13 12 10 9 8 7 6 6 7 8 11 13 16 20 24 27 29 31 32 34 35 37 38 39 40 41 40 40 41 41 42 42 41 40 40 41
23 22 21 20 18 17 16 14 13 12 11 10 9 8 7 7 6 6 8 10 14 17 21 25 28 30 33 34 35 37 38 39 40 40 40 41 41 42 41 41 41 41
24 23 22 21 20 19 18 16 16 15 14 14 13 12 11 10 9 8 8 8 9 10 12 15 19 23 27 30 32 34 36 37 38 39 39 40 40 41 41 41 42 42
23 22 22 21 20 19 19 19 18 17 17 16 16 14 14 13 13 12 12 11 10 9 9 9 11 14 18 23 27 31 33 35 36 37 38 38 39 40 40 41 41 42
23 23 22 22 21 21 21 21 20 20 19 18 17 17 16 16 15 15 14 14 13 11 10 9 9 9 10 13 18 22 26 30 33 35 36 37 38 38 38 39 40 41
23 24 23 22 22 22 22 22 22 21 20 19 19 18 17 17 16 16 16 15 15 14 13 12 11 11 10 10 11 13 16 20 24 29 32 34 36 36 37 37 38 39
24 24 24 23 23 22 21 22 22 22 21 20 20 19 19 18 18 17 17 16 16 16 15 15 14 14 14 14 14 14 14 14 17 21 24 28 32 34 35 36 36 37
26 26 26 25 25 24 23 23 23 23 24 23 22 22 21 20 19 19 18 18 18 18 17 17 16 15 15 16 16 16 17 17 18 19 21 23 27 30 32 34 34 35
27 28 28 27 26 25 24 23 23 23 24 25 24 24 22 21 20 19 19 19 20 20 20 19 18 17 16 16 16 16 16 17 18 20 21 23 24 26 28 31 32 33
27 27 26 26 25 23 22 22 21 21 21 22 22 23 22 21 20 20 20 20 21 22 22 22 21 19 19 18 18 17 17 16 17 19 20 22 24 25 26 28 30 31
26 26 25 25 24 22 21 21 21 20 20 20 20 21 21 21 22 22 21 21 21 22 24 25 23 22 20 20 20 19 18 18 19 19 20 22 23 24 25 26 28 30
26 26 26 26 26 25 23 23 23 23 23 22 21 21 22 22 23 23 23 23 23 22 24 26 25 22 21 21 21 21 20 20 21 21 22 23 24 23 24 25 26 28
27 28 28 28 29 28 26 24 23 24 23 22 22 22 22 22 23 23 24 24 24 23 24 26 26 23 21 21 22 21 21 22 22 23 23 24 24 24 23 23 24 26
25 27 28 28 28 27 27 24 23 23 23 22 22 22 22 23 23 23 23 23 23 23 23 25 26 22 20 22 24 23 22 21 22 23 24 25 25 24 23 22 22 23
24 25 26 26 26 26 26 25 24 24 24 24 24 24 24 24 21 21 22 22 23 23 23 24 24 22 20 23 24 22 21 20 21 22 23 24 24 24 24 22 21 22
25 26 27 26 26 26 25 24 24 24 23 23 24 23 23 22 21 21 23 24 22 22 22 22 21 21 21 23 22 20 19 19 20 20 21 22 22 23 23 23 22 22
Wind_Direction
218 220 222 224 225 226 227 227 225 225 225 226 227 230 233 237 239 239 238 238 237 237 237 237 237 237 237 237 236 236 237 237 239 240 239 238 238 238 238 239 240 240
220 222 224 225 226 228 229 231 231 231 231 233 235 237 239 241 243 242 242 242 242 242 243 242 241 240 240 239 239 238 237 238 239 240 241 241 241 240 240 241 242 242
222 224 226 227 229 231 232 234 235 236 236 238 240 241 243 244 245 245 245 245 245 246 246 246 245 244 244 243 242 241 240 239 240 241 242 242 242 242 242 243 244 243
225 227 229 232 234 236 237 236 236 238 239 241 243 245 246 247 248 247 247 247 246 247 247 247 247 247 247 246 244 243 243 243 243 243 242 242 243 244 244 245 244 244
230 231 233 235 237 239 240 239 240 242 243 245 247 249 249 249 249 248 248 247 247 247 247 247 248 248 247 247 245 244 244 244 244 243 242 242 243 245 245 245 245 245
238 238 238 239 241 243 243 244 246 248 248 250 252 252 252 251 250 249 249 248 248 248 247 247 247 248 247 247 246 245 244 244 244 243 241 241 243 245 245 244 244 245
253 250 247 247 247 248 249 251 253 253 254 256 255 255 254 253 252 252 251 251 250 249 248 248 248 248 248 247 245 244 244 244 244 242 241 241 242 243 243 243 244 245
340 277 263 258 256 256 256 257 259 259 260 260 258 259 259 258 257 257 256 255 253 251 251 250 250 249 249 247 245 244 243 242 242 240 240 240 240 240 241 242 243 244
60 58 56 49 15 317 289 281 276 273 272 270 268 268 267 264 263 263 261 259 256 255 253 252 251 250 249 247 246 245 243 243 242 240 240 240 239 240 241 241 242 242
54 54 56 57 54 49 43 31 12 345 320 303 291 285 279 274 271 268 266 263 259 257 255 254 252 251 249 248 247 246 245 244 243 242 241 241 241 242 242 241 240 241
45 44 44 44 42 39 36 32 29 26 18 8 354 336 317 301 289 281 275 270 266 264 262 259 258 256 253 251 249 248 247 246 244 243 242 242 242 243 242 242 241 242
40 38 37 35 33 31 28 23 20 16 11 8 4 357 349 340 331 322 307 293 281 274 271 268 266 263 259 256 254 252 250 248 246 245 244 243 243 243 244 243 243 244
34 32 31 29 28 26 24 21 18 15 10 7 1 353 346 339 334 332 332 329 316 298 286 278 273 269 265 262 260 256 254 251 249 248 247 246 246 245 245 245 245 246
26 24 23 21 20 18 17 14 13 11 8 6 2 359 354 348 340 331 324 322 322 319 312 300 287 278 272 268 264 260 257 255 253 251 250 249 248 248 247 247 247 247
16 15 14 12 11 10 9 6 3 1 360 357 357 358 356 352 348 341 331 321 315 313 312 311 306 297 286 278 272 267 262 259 257 255 254 253 252 251 250 249 248 248
8 7 5 4 5 4 2 359 355 353 351 350 350 349 348 346 345 342 339 333 324 316 310 306 303 300 294 288 283 279 274 270 266 262 259 257 255 254 253 252 251 250
5 2 1 0 359 358 356 353 349 344 343 341 341 340 339 340 339 337 336 335 331 325 320 314 308 303 297 291 286 284 282 279 276 272 268 264 260 257 255 254 253 253
2 360 359 357 355 353 350 347 343 339 337 335 333 333 332 331 332 331 330 329 328 325 322 319 317 315 310 303 295 289 283 279 276 275 274 271 267 262 259 257 255 254
1 358 356 353 351 349 345 342 340 338 335 333 331 330 329 327 327 326 325 324 323 322 320 317 316 318 317 314 310 303 296 288 280 277 275 274 272 269 265 261 257 254
358 355 352 349 347 344 341 338 337 334 332 331 329 329 329 327 324 322 320 320 319 319 317 314 312 314 314 314 313 311 307 301 292 284 279 276 275 273 270 265 260 256
355 351 348 346 343 341 337 335 334 331 329 327 324 324 325 323 321 318 316 316 316 315 312 310 309 311 311 311 310 310 310 307 299 292 285 280 277 275 272 269 266 261
353 350 346 344 342 340 336 335 334 332 331 330 326 323 321 320 320 318 315 312 311 311 310 308 308 309 310 308 308 309 310 308 303 299 293 286 281 278 276 273 270 265
349 348 346 342 340 338 336 333 331 330 330 330 325 321 320 318 317 315 313 310 307 305 306 305 306 308 307 304 305 309 310 307 304 303 299 293 287 284 281 278 273 268
345 345 343 339 336 334 331 328 325 325 326 325 321 317 314 314 312 310 310 309 307 304 303 303 304 304 303 301 302 305 306 305 304 304 301 297 293 288 285 282 277 271
340 341 339 336 332 328 326 325 323 322 323 324 322 317 313 310 309 308 308 308 306 303 302 301 297 294 297 301 302 303 302 300 302 303 300 298 296 292 289 286 281 275
338 338 337 334 331 328 326 326 326 325 327 327 324 319 314 310 307 308 308 306 305 304 305 303 297 294 299 302 301 300 301 301 300 299 298 298 296 292 288 284 280 275
Height
777 778 780 782 783 784 786 787 788 789 790 791 792 793 794 795 796 797 798 798 800 801 802 803 804 805 806 807 808 809 810 810 811 812 813 813 814 815 816 817 817 818
775 777 778 780 782 783 784 785 786 787 788 789 790 791 792 793 794 795 796 797 798 799 800 801 802 803 804 805 806 806 807 808 808 810 810 810 811 812 813 814 815 815
774 775 777 778 780 781 782 783 784 785 787 788 788 789 790 791 792 793 794 795 795 796 797 798 799 800 801 802 803 803 804 804 805 806 807 807 808 809 809 811 811 812
773 774 775 776 778 779 780 781 782 783 785 785 786 787 788 789 790 790 791 792 793 794 795 795 796 797 798 799 799 800 800 801 802 803 804 804 805 805 806 807 808 808
772 773 774 775 776 778 779 779 780 782 782 783 784 785 786 786 787 788 789 789 790 791 792 792 793 794 794 795 796 796 796 797 798 800 800 800 801 802 802 804 804 805
772 772 773 774 775 776 777 778 779 780 780 781 782 783 783 784 784 785 785 786 787 787 788 789 789 790 791 791 792 792 793 793 794 796 796 796 797 798 799 800 800 801
772 772 773 774 774 775 776 777 778 778 779 779 780 780 781 781 781 782 782 783 783 784 784 785 785 786 787 787 787 788 789 790 791 792 792 792 793 794 795 796 797 797
772 772 772 773 774 775 775 776 776 777 777 777 777 778 778 778 778 779 779 779 780 780 780 781 781 782 783 783 783 784 785 785 786 787 788 788 789 790 791 792 792 792
773 773 773 773 773 774 775 775 775 775 775 775 775 776 776 776 776 776 776 776 776 776 777 777 778 778 779 779 779 780 780 781 782 783 783 784 785 785 786 788 788 788
775 774 774 774 774 774 774 774 774 774 773 773 773 774 774 774 774 774 774 774 774 773 773 774 774 775 775 775 775 776 776 777 778 778 779 779 780 780 782 783 784 784
777 776 776 775 775 775 775 775 774 774 773 773 772 772 772 772 772 772 772 772 771 771 771 771 771 771 771 771 772 772 773 773 774 774 775 775 775 776 778 779 779 779
779 778 778 777 776 776 776 775 775 774 774 773 772 772 771 771 771 770 770 770 769 769 769 769 769 769 769 768 769 769 769 769 770 770 771 771 772 772 774 775 775 775
781 781 780 779 778 777 777 776 775 774 773 772 772 771 770 769 769 769 769 768 768 767 767 767 767 767 767 767 767 767 767 766 767 767 767 767 768 768 770 770 771 771
784 783 782 781 779 778 777 776 775 774 773 772 771 770 769 768 768 767 767 766 766 766 765 765 765 765 765 765 765 765 765 764 764 764 764 764 764 765 766 766 767 767
785 784 782 781 780 778 777 776 775 774 773 771 770 769 768 768 767 766 765 764 764 764 764 764 763 763 763 763 762 762 762 762 762 762 762 761 761 761 762 762 763 763
786 784 783 782 780 778 778 776 775 774 773 771 770 769 768 767 766 765 764 763 763 762 762 762 762 762 761 761 761 760 760 760 759 759 759 759 759 758 758 758 759 759
787 786 785 783 782 780 779 778 776 775 773 772 770 769 768 767 766 765 764 763 763 762 761 761 760 760 760 759 759 759 758 758 757 757 756 756 756 755 755 755 755 755
788 786 784 783 782 780 779 777 776 775 773 771 770 768 767 766 765 764 763 762 761 760 760 759 758 758 758 757 757 756 756 756 755 754 754 753 753 752 752 752 752 752
788 786 784 783 782 780 779 777 776 774 773 771 769 768 766 765 764 763 762 761 760 759 758 757 757 757 756 755 755 754 754 753 752 752 751 750 749 749 749 749 748 749
790 788 787 786 784 782 781 779 777 775 774 772 770 768 766 765 764 762 761 760 759 758 757 756 755 755 754 753 752 752 751 750 749 749 748 747 746 746 746 745 745 745
792 790 789 787 785 783 781 779 777 775 773 771 770 768 766 765 763 762 761 759 758 757 756 754 754 753 752 751 750 749 749 748 746 745 744 744 743 743 742 742 742 742
791 789 787 785 783 781 779 777 774 772 771 769 768 766 765 763 762 761 759 758 756 756 754 752 752 751 751 750 748 747 746 745 744 743 741 740 739 739 739 739 738 738
790 788 786 783 781 779 777 775 773 771 769 768 767 765 763 762 761 759 758 756 755 754 753 751 749 749 749 748 747 746 745 743 741 740 738 737 736 735 735 735 735 735
790 788 786 784 782 779 777 775 773 771 770 768 767 764 763 761 760 758 756 755 754 752 751 749 748 747 747 746 745 744 743 741 739 738 736 734 733 732 732 732 731 731
790 788 786 784 782 780 778 776 774 771 769 768 766 764 762 760 758 756 755 754 752 751 749 748 746 745 745 744 743 742 741 740 738 736 734 732 731 729 728 728 728 728
789 787 785 783 781 779 777 775 773 771 768 767 765 763 761 758 757 755 753 751 750 748 747 746 744 743 743 742 741 739 739 738 736 734 733 731 729 728 726 726 725 725